{"data":{"norad_id":54842,"epoch":"2026-09-20T00:31:06.525984Z","epoch_age_seconds":134036,"freshness":"FRESH","line1":"1 54842U 22177Y   26263.02160331 -.00000054  00000+0  75713-5 0  9994","line2":"2 54842  43.0016 115.1822 0001102 245.4810 114.5927 15.27576392206685","mean_motion":15.27576392,"eccentricity":0.0001102,"inclination_deg":43.0016,"raan_deg":115.1822,"arg_perigee_deg":245.481,"mean_anomaly_deg":114.5927,"bstar":7.5713e-6,"rev_number":20668,"period_min":94.266971363354,"perigee_km":482.30379581254,"apogee_km":483.81600360924,"semimajor_km":6861.1968997109,"source":"CELESTRAK","updated_at":"2026-09-21T09:00:33.135972Z"}}